Zurück zum Katalog

CZ-6A DEB

AktivSSO
NORAD 55540·DEBRIS·🇨🇳 China

Gestartet Nov 11, 2022 von Taiyuan Satellite Launch Center

Loading…

Nächste Überflüge (nächste 24 Stunden)

TLE

AktuellSource: Space-Track

Epoche: Sep 14, 2026, 00:24 UTC

1 55540U 22151YN  26257.01720542  .00000854  00000-0  29104-3 0  9999
2 55540  98.6436 287.8250 0101969 147.8234 212.9229 14.36121423195238

Verfolge CZ-6A DEB in Echtzeit mit AllMySat

Download on the App Store